• Join FlightAware (Why Join?)
  • Login
  • US Flag GB Flag 
17:48 EDT


 

Airport Tracker/Info


-or-


 

Live Flight TrackerFlight Track Log ✈ EJA922 ✈ 26-Aug-2013 ✈ KMKC - KMSP

Flight Track Log - Related Links

Times and Time Zones

All times are in EDT time to prevent confusion due to time zone crossing. See the EJA922 flight status page for this flight to view local times or setup timezone preferences in your user account.

Time Position Orientation Groundspeed Altitude Reporting Facility
EDT Latitude Longitude Course Direction KTS MPH feet Rate Location/Type
15:47 39.1000 -94.6000 229° Southwest 175 201 1,600  Level Kansas City TRACON
15:48 39.0667 -94.6500 229° Southwest 208 239 4,300 2,520 Climbing Kansas City TRACON
15:49 39.0500 -94.7167 252° West 272 313 6,200 2,760 Climbing Kansas City TRACON
15:50 39.0667 -94.8000 284° West 293 337 9,000 3,120 Climbing Kansas City TRACON
15:50 39.1008 -94.8292 326° Northwest 284 327 10,500 1,980 Climbing Kansas City Center
15:52 39.2728 -94.8806 347° North 368 423 14,200 1,680 Climbing Kansas City Center
15:53 39.3719 -94.8489 14° North 385 443 15,800 1,680 Climbing Kansas City Center
15:54 39.4897 -94.8111 14° North 392 451 17,700 1,740 Climbing Kansas City Center
15:55 39.5919 -94.7778 14° North 395 455 19,400 1,500 Climbing Kansas City Center
15:56 39.6967 -94.7439 14° North 403 464 20,900 1,620 Climbing Kansas City Center
15:57 39.8181 -94.7044 14° North 402 463 22,800 1,740 Climbing Kansas City Center
15:58 39.9222 -94.6694 14° North 404 465 24,500 1,680 Climbing Kansas City Center
15:59 40.0472 -94.6489 North 405 466 26,300 1,500 Climbing Kansas City Center
16:00 40.1578 -94.6364 North 416 479 27,600 1,080 Climbing Kansas City Center
16:01 40.2922 -94.6208 North 432 497 28,600 1,020 Climbing Kansas City Center
16:02 40.3839 -94.6089 North 436 502 29,400 960 Climbing Minneapolis Center
16:03 40.5089 -94.5853 North 450 518 30,400 780 Climbing Minneapolis Center
16:04 40.6289 -94.5397 16° North 462 532 31,100 720 Climbing Minneapolis Center
16:05 40.7564 -94.4956 15° North 469 540 32,000 1,200 Climbing Minneapolis Center
16:06 40.9114 -94.4403 15° North 478 550 33,700 1,380 Climbing Minneapolis Center
16:07 41.0397 -94.3936 15° North 480 552 34,900 600 Climbing Minneapolis Center
16:08 41.1772 -94.3442 15° North 486 559 35,000  Climbing Minneapolis Center
16:09 41.3158 -94.2936 15° North 504 580 35,000  Level Minneapolis Center
16:10 41.4556 -94.2419 15° North 517 595 35,000  Level Minneapolis Center
16:11 41.5892 -94.1936 15° North 521 600 35,000  Level Minneapolis Center
16:13 41.7319 -94.1411 15° North 515 593 35,000  Level Minneapolis Center
16:14 41.8956 -94.0800 16° North 511 588 35,000 -240 Level Minneapolis Center
16:15 42.0319 -94.0306 15° North 509 586 34,600 -960 Descending Minneapolis Center
16:16 42.1669 -93.9800 16° North 505 581 33,100 -780 Descending Minneapolis Center
16:17 42.2972 -93.9306 16° North 501 577 33,000 -60 Descending Minneapolis Center
16:18 42.4322 -93.8783 16° North 507 583 33,000  Level Minneapolis Center
16:19 42.5958 -93.8169 15° North 511 588 33,000  Level Minneapolis Center
16:20 42.7311 -93.7642 16° North 509 586 33,000  Level Minneapolis Center
16:21 42.8669 -93.7117 16° North 511 588 33,000  Level Minneapolis Center
16:22 43.0039 -93.6581 16° North 514 592 33,000 -600 Level Minneapolis Center
16:23 43.1406 -93.6067 15° North 513 590 31,800 -2,280 Descending Minneapolis Center
16:24 43.3072 -93.5497 14° North 518 596 28,400 -3,120 Descending Minneapolis Center
16:25 43.4469 -93.5369 North 508 585 25,400 -2,760 Descending Minneapolis Center
16:26 43.5808 -93.5236 North 496 571 22,700 -2,580 Descending Minneapolis Center
16:27 43.7100 -93.5114 North 476 548 20,100 -2,460 Descending Minneapolis Center
16:28 43.8358 -93.4997 North 461 531 17,700 -2,640 Descending Minneapolis Center
16:29 43.9808 -93.4872 North 443 510 14,700 -2,700 Descending Minneapolis Center
16:30 44.0944 -93.4753 North 420 483 12,100 -1,800 Descending Minneapolis Center
16:31 44.2086 -93.4650 North 414 476 11,000 -540 Descending Minneapolis Center
16:32 44.3153 -93.4050 22° Northeast 414 476 11,000  Level Minneapolis Center
16:33 44.4183 -93.3319 27° Northeast 417 480 11,000  Level Minneapolis Center
16:34 44.5417 -93.2444 27° Northeast 417 480 11,000 -120 Level Minneapolis Center
16:35 44.6472 -93.2058 15° North 390 449 10,800 -600 Descending Minneapolis Center
16:36 44.7372 -93.2478 342° North 310 357 9,800 -1,380 Descending Minneapolis Center
16:37 44.8083 -93.2939 335° Northwest 287 330 8,000 -1,740 Descending Minneapolis Center
16:38 44.8475 -93.3792 303° West 267 307 6,300 -1,260 Descending Minneapolis Center
16:39 44.8797 -93.4642 298° West 246 283 5,400 -1,140 Descending Minneapolis Center
16:40 44.9339 -93.5081 330° Northwest 267 307 4,000 -720 Descending Minneapolis Center
16:41 44.9561 -93.4275 69° East 221 254 4,000 -600 Level Minneapolis Center
16:43 44.9347 -93.3431 110° East 189 217 2,800 -1,080 Descending Minneapolis Center
16:44 44.9136 -93.2933 121° Southeast 147 169 1,800 -840 Descending Minneapolis Center
16:45 44.8933 -93.2475 122° Southeast 138 159 1,100 -720 Descending Minneapolis Center
16:47 44.8820 -93.2218 50° Northeast  Level Estimated